Location: Znojmo
(48.8500°N, 16.0500°E)
Time: 02:17:51
(UTC+02:00)

ISS - Pass Details

Date: 29 March 2019
Orbit: 408 x 410 km, 51.6° (Epoch: 21 April)

Event Time Altitude Azimuth Distance (km) Brightness Sun altitude
Rises 20:04:56 0° 281° (W) 2,337 1.5 -17.1°
Reaches altitude 10° 20:07:04 10° 286° (WNW) 1,475 0.3 -17.4°
Maximum altitude 20:10:18 50° 4° (N) 528 -3.2 -17.8°
Enters shadow 20:11:10 38° 53° (NE) 645 -3.1 -18.0°
